Cosmos 2297 Rocket - Orbit

View from above orbital plane
View from above orbital plane
View from above satellite
View from above satellite

Ground track
Ground track

The orbit data is extracted from the following two-line orbital elements,

1 23405U 94077B   13141.15086728 -.00000055  00000-0 -39620-5 0  7397
2 23405 070.9840 103.7206 0001716 356.9211 088.6711 14.15045499955007
Epoch (UTC): 21 May 2013 03:37:14
Eccentricity: 0.0001716
inclination: 70.9840°
perigee height: 841 km
apogee height: 843 km
right ascension of ascending node: 103.7206°
argument of perigee: 356.9211°
revolutions per day: 14.15045499
mean anomaly at epoch: 88.6711°
orbit number at epoch: 95500

The dashed part of the orbit path shows where the satellite is in the earth's shadow,  

Developed and maintained by Chris Peat, Heavens-Above GmbH. Please read the updated FAQ before sending e-mail. Imprint. DLR